TimeCDT,TemperatureF,Dew PointF,Humidity,Sea Level PressureIn,VisibilityMPH,Wind Direction,Wind SpeedMPH,Gust SpeedMPH,PrecipitationIn,Events,Conditions,WindDirDegrees,DateUTC
12:56 AM,64.0,59.0,84,30.07,10.0,South,3.5,-,N/A,,Clear,180,2013-05-10 05:56:00
1:56 AM,62.1,59.0,90,30.04,10.0,SE,3.5,-,N/A,,Clear,140,2013-05-10 06:56:00
2:56 AM,62.1,59.0,90,30.03,7.0,SSE,3.5,-,N/A,,Clear,150,2013-05-10 07:56:00
3:56 AM,62.1,60.1,93,30.00,5.0,SSE,3.5,-,N/A,,Clear,150,2013-05-10 08:56:00
4:56 AM,63.0,61.0,93,30.02,7.0,SSW,4.6,-,N/A,,Clear,200,2013-05-10 09:56:00
5:56 AM,63.0,61.0,93,30.02,5.0,South,3.5,-,N/A,,Clear,180,2013-05-10 10:56:00
6:15 AM,62.6,60.8,94,30.04,4.0,Calm,Calm,-,N/A,,Partly Cloudy,0,2013-05-10 11:15:00
6:56 AM,63.0,62.1,97,30.04,4.0,Calm,Calm,-,N/A,,Scattered Clouds,0,2013-05-10 11:56:00
7:05 AM,64.4,62.6,94,30.06,4.0,Calm,Calm,-,N/A,,Mostly Cloudy,0,2013-05-10 12:05:00
7:56 AM,66.0,63.0,90,30.10,7.0,West,3.5,-,N/A,,Overcast,280,2013-05-10 12:56:00
8:44 AM,66.2,62.6,88,30.11,10.0,Variable,3.5,-,N/A,,Mostly Cloudy,0,2013-05-10 13:44:00
8:56 AM,68.0,63.0,84,30.10,10.0,Calm,Calm,-,N/A,,Overcast,0,2013-05-10 13:56:00
9:27 AM,69.8,62.6,78,30.12,10.0,Calm,Calm,-,N/A,,Scattered Clouds,0,2013-05-10 14:27:00
9:56 AM,69.1,64.0,84,30.11,10.0,Calm,Calm,-,N/A,,Clear,0,2013-05-10 14:56:00
10:56 AM,71.1,63.0,75,30.11,10.0,Calm,Calm,-,N/A,,Mostly Cloudy,0,2013-05-10 15:56:00
11:19 AM,71.6,62.6,73,30.11,10.0,Calm,Calm,-,N/A,,Scattered Clouds,0,2013-05-10 16:19:00
11:56 AM,71.1,64.0,78,30.09,10.0,SSE,5.8,-,N/A,,Clear,150,2013-05-10 16:56:00
12:46 PM,71.6,64.4,78,30.04,10.0,SE,10.4,-,N/A,,Mostly Cloudy,140,2013-05-10 17:46:00
12:56 PM,72.0,64.0,76,30.02,10.0,SE,9.2,-,N/A,,Mostly Cloudy,140,2013-05-10 17:56:00
1:09 PM,73.4,64.4,73,30.03,10.0,SSE,10.4,-,N/A,,Scattered Clouds,150,2013-05-10 18:09:00
1:56 PM,73.9,61.0,64,29.99,10.0,South,6.9,-,N/A,,Scattered Clouds,180,2013-05-10 18:56:00
2:56 PM,73.9,60.1,62,29.99,10.0,South,6.9,-,N/A,,Overcast,180,2013-05-10 19:56:00
3:56 PM,77.0,61.0,58,29.97,10.0,South,8.1,-,N/A,,Mostly Cloudy,180,2013-05-10 20:56:00
4:56 PM,75.9,61.0,60,29.95,10.0,SW,6.9,-,N/A,,Mostly Cloudy,230,2013-05-10 21:56:00
5:56 PM,73.9,61.0,64,29.94,10.0,SSW,5.8,-,N/A,,Scattered Clouds,200,2013-05-10 22:56:00
6:56 PM,73.0,61.0,66,29.95,10.0,SSW,3.5,-,N/A,,Clear,200,2013-05-10 23:56:00
7:56 PM,70.0,62.1,76,29.99,10.0,SSW,3.5,-,N/A,,Mostly Cloudy,200,2013-05-11 00:56:00
8:56 PM,70.0,63.0,78,30.00,10.0,South,6.9,-,N/A,,Mostly Cloudy,190,2013-05-11 01:56:00
9:56 PM,70.0,64.0,81,29.97,10.0,South,4.6,-,N/A,,Partly Cloudy,180,2013-05-11 02:56:00
10:56 PM,69.1,64.0,84,29.98,10.0,Calm,Calm,-,N/A,,Partly Cloudy,0,2013-05-11 03:56:00
11:56 PM,68.0,64.0,87,29.99,10.0,SSE,5.8,-,N/A,,Overcast,150,2013-05-11 04:56:00